Location: Unspecified
(0.0000°N, 0.0000°E)
Time: 18:47:04
(UTC+00:00)

Altair - All Passes

Search period start: 17 July 2024 00:00
Search period end: 27 July 2024 00:00
Orbit: 1502 x 1681 km, 47.2° (Epoch: 17 July)

Date Brightness Start Highest point End Pass type
(mag) Time Alt. Az. Time Alt. Az. Time Alt. Az.
17 Jul - 01:29:32 10° NNE 01:33:09 13° NE 01:36:48 10° ENE visible
17 Jul - 03:28:42 10° NNW 03:38:06 73° NE 03:47:56 10° SE visible
17 Jul - 05:35:43 10° W 05:42:56 24° SW 05:50:25 10° S visible
17 Jul - 14:15:31 10° S 14:24:01 32° SE 14:32:13 10° ENE daylight
17 Jul - 16:19:10 10° SW 16:28:40 55° NW 16:37:49 10° NNE daylight
18 Jul - 01:06:18 10° NE 01:07:50 10° NE 01:09:22 10° NE visible
18 Jul - 03:03:36 10° NNW 03:12:55 66° NE 03:22:36 10° SE visible
18 Jul - 05:10:01 10° W 05:17:39 27° SW 05:25:34 10° S visible
18 Jul - 13:50:35 10° S 13:58:44 28° SE 14:06:36 10° ENE daylight
18 Jul - 15:53:47 10° SW 16:03:28 62° NW 16:12:46 10° NNE daylight
19 Jul - 02:38:32 10° NNW 02:47:43 59° NE 02:57:15 10° SE visible
19 Jul - 04:44:23 10° WNW 04:52:23 30° SW 05:00:40 10° S visible
19 Jul - 13:25:43 10° S 13:33:28 25° SE 13:40:57 10° E daylight
19 Jul - 15:28:27 10° SW 15:38:16 70° NW 15:47:41 10° NNE daylight
19 Jul - 17:40:21 10° WNW 17:43:17 12° NW 17:46:13 10° NNW daylight
20 Jul - 02:13:30 10° NNW 02:22:31 52° NE 02:31:51 10° SE visible
20 Jul - 04:18:50 10° WNW 04:27:07 34° SW 04:35:44 10° SSE visible
20 Jul - 13:00:55 10° S 13:08:10 22° SE 13:15:12 10° E daylight
20 Jul - 15:03:08 10° SW 15:13:04 78° NW 15:22:34 10° NE daylight
20 Jul - 17:13:34 10° WNW 17:17:58 14° NW 17:22:19 10° NNW daylight
21 Jul - 01:48:30 10° NNW 01:57:18 46° NE 02:06:25 10° ESE visible
21 Jul - 03:53:20 10° WNW 04:01:52 38° SW 04:10:45 10° SSE visible
21 Jul - 12:36:11 10° S 12:42:51 20° SE 12:49:21 10° E daylight
21 Jul - 14:37:51 10° SW 14:47:51 86° NW 14:57:25 10° NE daylight
21 Jul - 16:47:14 10° W 16:52:40 16° NW 16:58:02 10° NNW daylight
22 Jul - 01:23:32 10° NNW 01:32:06 41° NE 01:40:55 10° ESE visible
22 Jul - 03:27:53 10° WNW 03:36:38 42° SW 03:45:44 10° SSE visible
22 Jul - 12:11:33 10° S 12:17:31 17° SE 12:23:21 10° E daylight
22 Jul - 14:12:37 10° SW 14:22:39 86° SE 14:32:15 10° NE daylight
22 Jul - 16:21:08 10° W 16:27:23 19° NW 16:33:32 10° N daylight
23 Jul - 00:58:36 10° NNW 01:06:53 36° NE 01:15:24 10° ESE night (unlit)
23 Jul - 03:02:30 10° WNW 03:11:24 48° SW 03:20:42 10° SSE visible
23 Jul - 11:47:04 10° SSE 11:52:11 15° SE 11:57:11 10° ESE daylight
23 Jul - 13:47:24 10° SW 13:57:26 78° SE 14:07:02 10° NE daylight
23 Jul - 15:55:10 10° W 16:02:06 22° NW 16:08:54 10° N daylight
24 Jul - 00:33:43 10° N 00:41:41 32° NE 00:49:49 10° ESE night (unlit)
24 Jul - 02:37:08 10° NW 02:46:11 53° SW 02:55:37 10° SSE visible
24 Jul - 11:22:50 10° SSE 11:26:49 13° SE 11:30:44 10° ESE daylight
24 Jul - 13:22:12 10° SSW 13:32:12 70° SE 13:41:48 10° NE daylight
24 Jul - 15:29:20 10° W 15:36:51 25° NW 15:44:12 10° N daylight
25 Jul - 00:08:53 10° N 00:16:27 28° NE 00:24:11 10° ESE visible
25 Jul - 02:11:50 10° NW 02:20:58 60° SW 02:30:30 10° SSE visible
25 Jul - 10:59:13 10° SSE 11:01:26 11° SE 11:03:36 10° SE daylight
25 Jul - 12:57:03 10° SSW 13:06:59 63° SE 13:16:31 10° NE daylight
25 Jul - 15:03:35 10° WSW 15:11:35 28° NW 15:19:25 10° N daylight
25 Jul - 23:44:06 10° N 23:51:13 25° NE 23:58:28 10° E visible
26 Jul - 01:46:33 10° NW 01:55:46 67° SW 02:05:22 10° SSE night (unlit)
26 Jul - 03:58:18 10° WSW 04:01:07 11° SW 04:04:00 10° SSW visible
26 Jul - 12:31:55 10° SSW 12:41:45 56° SE 12:51:12 10° NE daylight
26 Jul - 14:37:54 10° WSW 14:46:21 32° NW 14:54:34 10° N daylight
26 Jul - 23:19:23 10° N 23:25:59 22° NE 23:32:40 10° E visible
